Location: Nianha
(10.8000°N, 4.6333°W)
Time: 03:21:18
(UTC+00:00)

Palapa 6 Rocket - Pass Details

Date: 14 November 2019
Orbit: 485 x 1218 km, 22.7° (Epoch: 28 January)

Event Time Altitude Azimuth Distance (km) Brightness Sun altitude
Exits shadow 04:33:41 45° 291° (WNW) 1,594 4.6 -24.4°
Maximum altitude 04:36:33 90° 213° (SSW) 1,215 4.4 -23.7°
Drops below altitude 10° 04:44:28 10° 112° (ESE) 3,070 7.7 -21.8°
Sets 04:47:12 0° 112° (ESE) 3,969 8.7 -21.2°
